Regional Weather Roundup
Issued by NWS

Home | Current Version | Previous Version | Text Only | Print | Product List | Glossary Off
Versions: 1 2 3 4 5 6 7 8 9 10 11 12 13 14 15 16 17 18 19 20 21 22 23 24 25 26 27 28 29 30 31 32 33 34 35 36 37 38 39 40 41 42 43 44 45 46 47 48 49 50

000
ASUS43 KIND 200959
RWRIN

WEATHER ROUNDUP FOR INDIANA
NATIONAL WEATHER SERVICE INDIANAPOLIS IN
500 AM EST TUE FEB 20 2018

NOTE: "FAIR" INDICATES FEW OR NO CLOUDS BELOW 12,000 FEET WITH NO
SIGNIFICANT WEATHER AND/OR OBSTRUCTIONS TO VISIBILITY.

* - STATION DOES NOT REPORT WEATHER SUCH AS PRECIPITATION OR FOG.

+ - STATION NOT QUALITY CONTROLLED BY THE NATIONAL WEATHER SERVICE.
    USE DATA WITH CAUTION...ESPECIALLY DEWPOINT AND RELATIVE
    HUMIDITY OBSERVATIONS.

INZ001>003-010>013-019-020-201100-
NORTHWEST INDIANA

CITY           SKY/WX    TMP DP  RH WIND       PRES   REMARKS
MONTICELLO +   CLOUDY    62  58  87 S12       29.91F
RENSSELAER +   CLOUDY    61  54  77 S12       29.89R

$$

LMZ046-743>745-201100-
SOUTHERN LAKE MICHIGAN

STATION/POSITION TIME  TEMP    WIND        PRES    WAVE
                       AIR SEA DIR/SP/G            HT
                 (UTC) (F)     (DEG/KT/KT) (MB)    (FT)
BURNS HARBOR     0940   58     190/ 14/ 19 1011.2S
MICHIGAN CITY    0930   60     190/ 24/ 28   N/A

$$

INZ004-005-014>016-021>024-201100-
NORTH CENTRAL INDIANA

CITY           SKY/WX    TMP DP  RH WIND       PRES   REMARKS
GOSHEN         CLOUDY    60  57  89 S15       29.92R
PERU/GRISSOM   CLOUDY    62  62 100 S12       29.93F
SOUTH BEND     LGT RAIN  59  57  93 SW13G26   29.91R
WARSAW +       CLOUDY    61  57  88 S7        29.93S

$$

INZ006>009-017-018-025>027-201100-
NORTHEAST INDIANA

CITY           SKY/WX    TMP DP  RH WIND       PRES   REMARKS
AUBURN +       CLOUDY    59  55  88 S10G16    29.96F
FORT WAYNE     CLOUDY    61  57  87 S13       29.96F
KENDALLVILLE + CLOUDY    58  56  92 S14G22    29.94F

$$

INZ028-029-035-036-043>045-051>053-201100-
WEST CENTRAL INDIANA

CITY           SKY/WX    TMP DP  RH WIND       PRES   REMARKS
GREENCASTLE +  FAIR      63  55  77 S14G22    29.98S
LAFAYETTE      MOCLDY    64  58  80 S14G26    29.91S
TERRE HAUTE    FAIR      64  58  80 S15G24    29.97R

$$

INZ030>032-037>040-046>048-054>057-064-065-201100-
CENTRAL INDIANA

CITY           SKY/WX    TMP DP  RH WIND       PRES   REMARKS
GREENWOOD *+   FAIR      58 -48   1 S10       30.01F
INDIANAPOLIS   MOCLDY    65  57  75 S14       29.99S
-EAGLE CREEK   FAIR      66  56  70 S10G18    29.98S
KOKOMO +       CLOUDY    61  57  87 S17       29.96F
MT COMFORT *+  FAIR      59  57  94 S13G18    30.01S
SHELBYVILLE    FAIR      63  54  72 S17       30.01F

$$

INZ033-034-041-042-049-050-058-059-201100-
EAST CENTRAL INDIANA

CITY           SKY/WX    TMP DP  RH WIND       PRES   REMARKS
MUNCIE         FAIR      63  55  75 S13G25    30.00S
RICHMOND +     FAIR      54  54 100 S14       30.08R

$$

INZ060-061-067>069-081>083-085>088-201100-
SOUTHWEST INDIANA

CITY           SKY/WX    TMP DP  RH WIND       PRES   REMARKS
EVANSVILLE     MOCLDY    66  59  78 S14G21    30.04R
HUNTINGBURG +  FAIR      66  58  75 S17       30.05S

$$

INZ062-063-066-070>080-084-089>092-201100-
SOUTH CENTRAL AND SOUTHEAST INDIANA

CITY           SKY/WX    TMP DP  RH WIND       PRES   REMARKS
BLOOMINGTON    FAIR      67  58  72 S20G26    30.02R
FRENCH LICK *+ FAIR      64  52  63 S15G22    30.06R
SEYMOUR +      FAIR      64  54  68 S15       30.06S

$$





USA.gov is the U.S. government's official web portal to all federal, state and local government web resources and services.